Location: Untermarchtal
(48.2403°N, 9.6117°E)
Time: 15:38:53
(UTC+02:00)

ISS - Pass Details

Date: 07 January 2018
Orbit: 401 x 409 km, 51.6° (Epoch: 19 August)

Event Time Altitude Azimuth Distance (km) Brightness Sun altitude
Exits shadow 06:09:05 45° 1° (N) 584 -3.2 -19.5°
Drops below altitude 10° 06:12:25 10° 79° (E) 1,515 0.1 -19.0°
Enters shadow 07:05:58 -74° 282° (WNW) 12,678 3.7 -10.5°
Maximum altitude 07:46:02 85° 204° (SSW) 431 -3.7 -4.5°
